Other Public Products
Issued by NWS Grand Forks, ND

Home | Current Version | Previous Version | Text Only | Print | Product List | Glossary On
Versions: 1 2 3 4 5 6 7 8 9 10 11 12 13 14 15 16 17 18 19 20 21 22 23 24 25 26 27 28 29 30 31 32 33 34 35 36 37 38 39 40 41 42 43 44 45 46 47 48 49 50
000
FPUS83 KFGF 020810
OPUFGF
PRAIRIE TO PINES WEATHER ROUNDUP
NATIONAL WEATHER SERVICE EASTERN NORTH DAKOTA/GRAND FORKS ND
300 AM CDT SUN AUG 02 2015

 **SATELLITE DATA USED TO AUGMENT SKY COVER AT AUTOMATED STATIONS**
 *****  WEATHER ACROSS EASTERN NORTH DAKOTA  *****

CITY           SKY/WX    TMP DP  RH WIND       PRES   REMARKS
GRAND FORKS    MOCLDY    68  60  75 NE6       29.68F
GRAND FORKS AF PTCLDY    67  60  79 NE5       29.68F
GRAND CITY NWS NOT AVBL
BUXTON         NOT AVBL
DEVILS LAKE    PTCLDY    64  54  68 NE6       29.71R
FARGO          PTCLDY    70  66  87 NE3       29.65S
WAHPETON ARPT  MOSUNNY   64  63  94 CALM      29.65S
$$

 *****  WEATHER ACROSS CENTRAL AND WESTERN NORTH DAKOTA  *****

CITY           SKY/WX    TMP DP  RH WIND       PRES   REMARKS
JAMESTOWN      CLEAR     68  59  73 W8        29.65S
BISMARCK       CLEAR     67  57  70 NW12G20   29.77R
MINOT          CLEAR     63  57  81 W10       29.81R
MINOT AFB      CLEAR     62  60  94 NW9       29.80R
GARRISON         N/A     63  57  81 N12       29.81R
WILLISTON      CLEAR     62  53  72 N9        29.89R
DICKINSON      CLEAR     64  52  64 N9        29.88R
HETTINGER      CLEAR     62  43  49 N7        29.88R
$$

 *****  OTHER OBSERVATIONS NORTHEAST NORTH DAKOTA  *****

CITY           SKY/WX    TMP DP  RH WIND       PRES   REMARKS
WALHALLA       FAIR      61  61 100 MISG      29.69F
LANGDON        DRIZZLE   61  59  94 N8        29.71F
CAVALIER       PTSUNNY   64  59  82 N8        29.67F
GRAFTON        FAIR      64  61  88 CALM      29.67F
CANDO          NOT AVBL
FORT TOTTEN      N/A     67  57  69 E6        29.95S
ROLLA          FAIR      59  57  94 NW13      29.76F
RUGBY          NOT AVBL
 ***** THE ABOVE OBSERVATIONS ARE NON NWS ARE NOT QUALITY
        CONTROLLED AND MAY MIS-REPORT RAIN FOR SNOW...
$$

 *****  OTHER OBSERVATIONS SOUTHEAST NORTH DAKOTA *****

CITY           SKY/WX    TMP DP  RH WIND       PRES   REMARKS
COOPERSTOWN    NOT AVBL
VALLEY CITY    FAIR      64  64 100 S5        29.63F
OAKES            N/A     64  64 100 SW9       29.68S
GWINNER          N/A     70  70 100 SW10      29.66F
SHEYENNE NWR     N/A     67  66  97 W3        29.95
BUFFALO        NOT AVBL
WYNDMERE         N/A     66  64  94 NW2         N/A
 ***** THE ABOVE OBSERVATIONS ARE NON NWS ARE NOT QUALITY
       CONTROLLED AND MAY MIS-REPORT RAIN FOR SNOW...
$$

  *****  WEATHER ACROSS NORTHERN MINNESOTA  *****

CITY           SKY/WX    TMP DP  RH WIND       PRES   REMARKS
FLAG ISLAND    MOCLDY    68  61  77 N7        29.66S
WARROAD        CLOUDY    63  57  82 W7        29.69R
ROSEAU         CLOUDY    63  57  82 N3        29.68F
HALLOCK        CLOUDY    63  61  94 N5        29.66F
THF RVR FALLS  MOCLDY    66  57  72 NE5       29.69F
HALSTAD        NOT AVBL
FOSSTON        MOCLDY    63  61  94 CALM      29.71R
BAUDETTE       MOCLDY    61  58  90 W6        29.68R
WASKISH        CLOUDY    63  59  88 CALM      29.68F
CROOKSTON      PTCLDY    68  61  77 NE8       29.69F
$$
  *****  WEATHER ACROSS CENTRAL AND WEST MINNESOTA  *****

CITY           SKY/WX    TMP DP  RH WIND       PRES   REMARKS
BEMIDJI        CLOUDY    64  60  86 N7        29.71R
PARK RAPIDS    MOCLDY    68  63  84 N5        29.69R
WADENA         PTCLDY    66  64  94 CALM      29.66S
DETROIT LAKES  MOCLDY    68  66  94 CALM      29.69R
MOORHEAD       PTCLDY    64  63  94 CALM      29.66S
FERGUS FALLS   PTCLDY    70  64  83 CALM      29.65F
ELBOW LAKE     FAIR      67  65  94 CALM      29.67R
MORRIS MN      FAIR      66  64  94 SW7       29.66R
STAPLES        PTCLDY    66  64  94 CALM      29.68R
WHEATON        PTCLDY    66  64  94 SW8       29.67S
$$
  *****  WEATHER ELSEWHERE ACROSS MINNESOTA  *****

CITY           SKY/WX    TMP DP  RH WIND       PRES   REMARKS
DULUTH         MOCLDY    67  59  75 W7        29.67F
INTRNTL FALLS  CLOUDY    61  59  93 W5        29.66F
ELY            LGT RAIN  63  57  82 W7        29.69R
CLOQUET        PTCLDY    66  59  77 SW7       29.67S
BRAINERD       CLEAR     68  65  90 NW5       29.66F
HIBBING        CLOUDY    60  56  86 CALM      29.69R
ALEXANDRIA     CLEAR     70  64  81 S13       29.66F
SAINT CLOUD    CLEAR     67  64  90 S7        29.68F
MINNEAPOLIS    PTCLDY    75  65  70 SW13      29.71F
$$

  *****  WEATHER ACROSS SOUTH DAKOTA  *****

CITY           SKY/WX    TMP DP  RH WIND       PRES   REMARKS
SIOUX FALLS    CLEAR     70  61  73 SW8       29.78F
BROOKINGS      CLEAR     66  59  77 S13       29.77F
WATERTOWN      CLEAR     68  63  84 SW12      29.75R
HURON          CLEAR     69  61  75 SW7       29.73F
SISSETON         N/A     66  63  90 W7        29.67R
ABERDEEN       CLEAR     60  57  89 S7        29.70F
MITCHELL       CLEAR     69  61  75 SW9       29.77F
PIERRE           N/A     73  60  63 W14       29.77F
MOBRIDGE       CLEAR     66  51  58 NW8       29.74F
RAPID CITY     CLEAR     66  55  67 NW8       29.91S
$$

  *****  SOME WEATHER IN NEARBY STATES *****

CITY           SKY/WX    TMP DP  RH WIND       PRES   REMARKS
GLASGOW MT     CLEAR     62  51  67 NE7       29.95R
GREAT FALLS MT CLEAR     62  37  39 W7        29.95R
CHEYENNE WY    PTCLDY    59  52  77 W8        30.16F
SCOTTSBLUFF NE CLEAR     69  55  60 CALM      30.01F
OMAHA NE       MOCLDY    73  69  87 S12       29.87F
DES MOINES IA  PTCLDY    73  64  73 SW10      29.87F
DAVENPORT IA   CLEAR     72  70  93 S8        29.89F
CHICAGO IL     PTCLDY    72  66  81 W12       29.87F
EAU CLAIRE WI  MOCLDY    71  66  84 SW7       29.73F
LA CROSSE WI   MOCLDY    75  69  81 SE5       29.77F
$$

  *****  SOME NATIONAL WEATHER *****

CITY           SKY/WX    TMP DP  RH WIND       PRES   REMARKS
LA GUARDIA NY  PTCLDY    76  57  51 NW6       29.86S
RALEIGH NC     PTCLDY    72  60  66 N3        29.93S
ATLANTA GA     CLEAR     76  60  57 N6        29.93S
NEW ORLEANS LA CLEAR     78  68  71 CALM      29.88F
OKLAHOMA CITY  MOCLDY    72  69  90 S3        29.97F
ALBUQUERQUE NM CLOUDY    67  61  81 SE7       30.18F
SALT LAKE CITY PTCLDY    72  43  35 S5        29.98S
LOS ANGELES CA PTCLDY    69  64  84 VRB5      29.91F
BOISE ID       MOCLDY    77  37  23 SE6       29.88S
SEATTLE WA     CLEAR     73  50  44 NE8       29.93R
$$

*** WEATHER ACROSS MANITOBA...SASKATCHEWAN AND ONTARIO ***
                ***ONTARIO***

CITY           SKY/WX    TMP DP  RH WIND       PRES   REMARKS
GERALDTON      PTCLDY    55  54  94 SW7       29.57F
THUNDER BAY    CLOUDY    61  59  94 S7        29.62F
SIOUX LOOKOUT  PTCLDY    59  57  94 W5        29.63S
TORONTO        PTCLDY    63  54  72 W2        29.82F
BIG TROUT LK   LGT RAIN  50  48  93 NW12G17   29.45
PICKLE LAKE    NOT AVBL
DRYDEN         PTCLDY    57  55  94 W6        29.65R
KENORA         MOCLDY    61  59  94 W6        29.68S
$$
                *** MANITOBA***

CITY           SKY/WX    TMP DP  RH WIND       PRES   REMARKS
BRANDON        PTCLDY    57  55  94 NW7       29.78R
DAUPHIN        PTCLDY    55  54  94 W7        29.78R
ISLAND LAKE    CLOUDY    55  46  71 NW13G22   29.59S
PILOT MOUND      N/A     57  57 100 N6          N/A
THE PAS        CLEAR     61  46  59 NW10      29.77S
THOMPSON       LGT RAIN  52  48  87 NW12G20   29.64F
WINNIPEG       MOCLDY    59  55  88 W7        29.70S
LYNN LAKE      CLOUDY    54  45  71 NW14      29.75S
CHURCHILL      LGT RAIN  46  45  93 N20       29.53S FOG
$$
                ***SASKATCHEWAN***

CITY           SKY/WX    TMP DP  RH WIND       PRES   REMARKS
ESTEVAN        CLEAR     54  52  94 W8        29.87S
KINDERSLEY     PTCLDY    55  52  88 N9        30.01R
LLOYDMINSTER   CLEAR     52  48  87 NW6       30.01S
PRINCE ALBERT  CLEAR     52  50  93 W6        29.92R
REGINA         CLEAR     54  54 100 NW7       29.92R
YORKTON        MOCLDY    57  55  94 NW8       29.84S


USA.gov is the U.S. government's official web portal to all federal, state and local government web resources and services.